Location: Karcze
(52.0945°N, 22.4786°E)
Time: 16:16:18
(UTC+00:00)

A-11 Canister half - Pass Details

Date: 01 August 2021
Orbit: 1515 x 1685 km, 47.2° (Epoch: 20 September)

Event Time Altitude Azimuth Distance (km) Brightness Sun altitude
Rises 14:49:11 0° 211° (SSW) 4,767 12.1 30.4°
Reaches altitude 10° 14:52:33 10° 203° (SSW) 3,810 11.6 29.9°
Maximum altitude 15:01:01 35° 142° (SE) 2,416 10.1 28.6°
Drops below altitude 10° 15:09:43 10° 82° (E) 3,928 10.7 27.2°
Sets 15:13:15 0° 74° (ENE) 4,932 11.1 26.7°
